[[{"header":{"parameterUnit":"m.s-1","parameterCategory":1,"la1":30.2991,"la2":30.254,"lo1":-89.0895,"lo2":-89.0444,"dy":0.0017,"dx":0.0017,"nx":28,"ny":28,"refTime":"2025-07-03T03:00:00:Z","depth":0,"parameterNumber":2,"parameterNumberName":"U-component_of_WINDS"},"data":[0,0,0,0,0,0,0,0,0,0,0,0,0,0,0,0,0,0,0,0,0,0,0,0,0,0,0,0,0,0,0,0,0,0,0,0,0,0,0,0,0,0,0,0,0,0,0,0,0,0,0,0,0,0,0,0,0,0,2.273,2.273,0,2.2725,2.2725,2.2725,2.2642,2.264,2.2638,2.2636,2.263,2.2632,2.2634,0,0,0,0,0,0,0,0,0,0,0,0,0,2.2669,2.2671,2.273,2.273,2.273,2.2725,2.2725,2.2725,2.2642,2.264,2.2637,2.2635,2.263,2.2632,2.2634,0,0,0,0,0,0,0,0,0,0,0,0,0,2.2683,2.2672,2.273,2.2688,2.2685,2.2725,2.2725,2.2725,2.2643,2.264,2.2637,2.2634,2.2629,2.2632,2.2634,2.2715,0,0,2.2643,2.2644,0,0,0,0,0,0,0,0,2.2683,2.2686,2.2695,2.2691,2.2687,2.2681,2.2701,2.2721,2.2644,2.2659,2.2636,2.2632,2.265,2.2651,2.2656,2.2714,2.2714,2.2643,2.2645,2.2646,2.2647,0,0,0,0,0,0,0,2.2682,2.2685,2.2728,2.2695,2.269,2.267,2.2668,2.2705,2.2672,2.2657,2.2651,2.2652,2.2647,2.2654,2.2656,2.2714,2.2643,2.2645,2.2647,2.2648,2.2838,2.2841,0,0,0,0,0,0,2.2687,2.2685,2.2728,2.2728,2.2677,2.2674,2.2672,2.2686,2.2671,2.2666,2.2654,2.2648,2.2651,2.2653,2.2655,2.2748,2.2646,2.2648,2.265,2.2835,2.2839,2.2843,0,0,0,0,0,0,2.2686,2.2691,2.2729,2.2705,2.2708,2.2678,2.2695,2.2688,2.2695,2.2669,2.2663,2.2668,2.2649,2.2651,2.2701,2.2747,2.265,2.2652,2.2831,2.2836,2.2841,2.2936,0,0,0,0,0,0,2.2684,2.2691,2.2721,2.2706,2.271,2.2774,2.2698,2.269,2.27,2.2691,2.268,2.2675,2.2646,2.2697,2.2703,2.2749,2.2654,2.2826,2.2833,2.2839,2.2928,2.2944,2.2957,0,0,0,0,0,2.2682,2.2748,2.2723,2.2729,2.2747,2.2777,2.2779,2.2744,2.2704,2.2734,2.2718,2.2675,2.2741,2.2703,2.2709,2.2757,2.2823,2.2831,2.2839,2.2922,2.2941,2.2956,0,0,0,0,0,0,2.2769,2.2745,2.2718,2.278,2.2782,2.2763,2.28,2.2765,2.2778,2.2769,2.2726,2.2724,2.278,2.2773,2.2731,2.2834,2.2775,2.2784,2.2836,2.2854,2.2867,2.2868,2.2656,0,0,0,0,0,2.2796,2.2822,2.28,2.2858,2.286,2.283,2.2842,2.2815,2.2815,2.2814,2.2802,2.2803,2.2824,2.2838,2.2856,2.2927,2.2924,2.2963,2.2977,2.2989,2.2997,2.3035,2.3052,2.2868,2.2868,2.2868,0,0,2.285,2.2841,2.286,2.2875,2.2873,2.2901,2.2831,2.2864,2.2885,2.2819,2.2865,2.2856,2.2854,2.2915,2.2941,2.2911,2.3048,2.2999,2.3008,2.301,2.3045,2.3062,2.3078,2.2873,2.2872,2.2871,0,0,2.2965,2.2961,2.3008,2.3008,2.3005,2.2985,2.2997,2.2984,2.2976,2.3021,2.2973,2.2997,2.3034,2.3035,2.304,2.3157,2.3119,2.3164,2.3237,2.3275,2.3289,2.3302,2.3344,2.3359,2.3172,2.3173,2.3173,0,2.3034,2.3075,2.3037,2.3074,2.3082,2.3025,2.3073,2.3074,2.3078,2.3085,2.3051,2.3097,2.3091,2.3152,2.3181,2.3187,2.3199,2.3165,2.329,2.3302,2.3314,2.3353,2.3369,2.3178,2.3178,2.3177,2.3176,0,2.3159,2.3189,2.3228,2.3233,2.3246,2.3288,2.3257,2.3275,2.3248,2.3231,2.3279,2.3271,2.3286,2.3298,2.3272,2.3356,2.3337,2.3298,2.3237,2.3338,2.3374,2.3389,2.3186,2.3184,2.3182,2.3181,0,0,2.3328,2.3313,2.3328,2.333,2.3323,2.3345,2.3386,2.3401,2.3417,2.3422,2.3454,2.3488,2.3451,2.3457,2.3431,2.3464,2.3557,2.342,2.3419,2.3446,2.3649,2.3679,2.3697,2.3532,2.3535,2.3537,2.365,0,2.3439,2.3506,2.3474,2.3546,2.3573,2.3519,2.3554,2.3555,2.3541,2.3562,2.3546,2.3571,2.3521,2.3524,2.3554,2.3539,2.3597,2.3531,2.3562,2.3564,2.3564,2.3716,2.3748,2.3854,2.3664,2.3666,2.3668,0,2.3576,2.3588,2.3662,2.3652,2.3662,2.3694,2.3706,2.3727,2.3726,2.3714,2.3722,2.3688,2.3727,2.3668,2.3721,2.3677,2.3688,2.3683,2.3686,2.3687,2.3622,2.3722,2.3887,2.3904,2.369,2.3688,2.3686,0,2.3692,2.3726,2.3775,2.3778,2.3767,2.3791,2.3788,2.3784,2.3796,2.3806,2.3813,2.3829,2.3837,2.385,2.3821,2.378,2.3878,2.3817,2.3869,2.387,2.3892,2.3891,2.4062,2.39,2.39,2.3899,2.3899,0,2.3819,2.3867,2.3827,2.3857,2.3909,2.3872,2.3925,2.3915,2.3913,2.394,2.3895,2.3922,2.3882,2.3906,2.3883,2.3931,2.3935,2.3927,2.392,2.3931,2.3932,2.3937,2.3929,2.3904,2.3903,2.3902,2.3901,0,2.3957,2.3932,2.3982,2.3968,2.3965,2.4004,2.3992,2.402,2.4003,2.4039,2.4045,2.402,2.4045,2.4017,2.404,2.4025,2.409,2.4073,2.4091,2.4086,2.414,2.4135,2.432,2.4342,2.4166,2.4168,2.4169,0,2.4039,2.4075,2.4065,2.4081,2.408,2.4105,2.4117,2.4082,2.4097,2.4099,2.4127,2.4148,2.4163,2.4206,2.4189,2.4207,2.419,2.4253,2.4192,2.4202,2.4191,2.4189,2.4193,2.4266,2.4268,2.4269,2.4271,0,2.4189,2.4175,2.4194,2.4209,2.4225,2.4235,2.4241,2.4257,2.4221,2.4239,2.4264,2.4276,2.43,2.4322,2.4335,2.4331,2.4296,2.429,2.4304,2.4315,2.4324,2.432,2.4125,2.4286,2.4285,2.4284,2.4283,2.4282,2.4301,2.4331,2.4329,2.4352,2.4353,2.4361,2.4386,2.4373,2.4394,2.4411,2.4389,2.4421,2.442,2.4434,2.4434,2.4459,2.4432,2.4451,2.4455,2.4461,2.4469,2.432,2.4461,2.446,2.446,2.446,2.4459,0,2.4448,2.4445,2.4466,2.4477,2.4496,2.4461,2.4467,2.4484,2.4513,2.4515,2.4531,2.4561,2.4582,2.4568,2.4586,2.4608,2.4592,2.4614,2.4612,2.4612,2.4492,2.4479,2.4627,2.4627,2.4627,2.4627,2.4627,2.4627,2.4527,2.4575,2.4561,2.461,2.4606,2.4637,2.4643,2.465,2.4652,2.4687,2.4705,2.4696,2.4692,2.4709,2.4727,2.4723,2.4732,2.476,2.4749,2.4637,2.462,2.4605,2.4592,2.4762,2.4762,2.4867,2.4868,2.4869]},{"header":{"parameterUnit":"m.s-1","parameterCategory":1,"la1":30.2991,"la2":30.254,"lo1":-89.0895,"lo2":-89.0444,"dy":0.0017,"dx":0.0017,"nx":28,"ny":28,"refTime":"2025-07-03T03:00:00:Z","depth":0,"parameterNumber":3,"parameterNumberName":"V-component_of_WINDS"},"data":[0,0,0,0,0,0,0,0,0,0,0,0,0,0,0,0,0,0,0,0,0,0,0,0,0,0,0,0,0,0,0,0,0,0,0,0,0,0,0,0,0,0,0,0,0,0,0,0,0,0,0,0,0,0,0,0,0,0,-1.9519,-1.952,0,-1.9638,-1.964,-1.9641,-1.9658,-1.9656,-1.9655,-1.9654,-1.9777,-1.9782,-1.9786,0,0,0,0,0,0,0,0,0,0,0,0,0,-1.9305,-1.9309,-1.9518,-1.952,-1.9521,-1.9638,-1.964,-1.9641,-1.9658,-1.9656,-1.9655,-1.9654,-1.9776,-1.9781,-1.9786,0,0,0,0,0,0,0,0,0,0,0,0,0,-1.9409,-1.931,-1.9518,-1.9544,-1.9547,-1.9638,-1.964,-1.9642,-1.9658,-1.9656,-1.9655,-1.9653,-1.9774,-1.9781,-1.9787,-1.9861,0,0,-1.9807,-1.981,0,0,0,0,0,0,0,0,-1.9403,-1.9416,-1.9538,-1.9542,-1.9546,-1.9631,-1.961,-1.9715,-1.9658,-1.9616,-1.9654,-1.9652,-1.973,-1.974,-1.9766,-1.9866,-1.9872,-1.9807,-1.9811,-1.9814,-1.9816,0,0,0,0,0,0,0,-1.9396,-1.9411,-1.9566,-1.954,-1.9545,-1.9549,-1.9562,-1.963,-1.9681,-1.9619,-1.9621,-1.9635,-1.9732,-1.976,-1.9769,-1.9874,-1.9807,-1.9813,-1.9817,-1.982,-2.0041,-2.0043,0,0,0,0,0,0,-1.9384,-1.9405,-1.9562,-1.9569,-1.9469,-1.9555,-1.9569,-1.9606,-1.968,-1.969,-1.9636,-1.9635,-1.975,-1.9762,-1.9774,-1.9865,-1.9814,-1.982,-1.9824,-2.0039,-2.0041,-2.0043,0,0,0,0,0,0,-1.9379,-1.9397,-1.9557,-1.9488,-1.9509,-1.956,-1.9601,-1.9609,-1.9637,-1.9693,-1.9702,-1.9655,-1.9749,-1.9765,-1.9839,-1.987,-1.9823,-1.9829,-2.0036,-2.0039,-2.0042,-2.0048,0,0,0,0,0,0,-1.9373,-1.9396,-1.9424,-1.9488,-1.9512,-1.962,-1.9603,-1.9612,-1.9648,-1.9648,-1.9713,-1.9723,-1.9749,-1.9829,-1.9845,-1.9878,-1.9834,-2.0034,-2.0038,-2.0041,-2.0046,-2.0051,-2.0056,0,0,0,0,0,-1.9365,-1.9421,-1.9425,-1.9444,-1.9548,-1.9622,-1.9635,-1.9664,-1.965,-1.9679,-1.9715,-1.9721,-1.9864,-1.9837,-1.9855,-1.989,-2.0032,-2.0037,-2.0041,-2.0043,-2.005,-2.0056,0,0,0,0,0,0,-1.9359,-1.943,-1.9435,-1.9514,-1.9562,-1.9624,-1.9662,-1.967,-1.9723,-1.9721,-1.9755,-1.977,-1.9842,-1.9874,-1.9842,-1.9965,-1.9947,-1.9955,-1.9942,-1.9949,-1.9954,-1.9945,-1.9839,0,0,0,0,0,-1.9366,-1.942,-1.9479,-1.9542,-1.9566,-1.961,-1.9643,-1.9661,-1.9712,-1.9733,-1.9774,-1.9824,-1.988,-1.9916,-1.9971,-2.005,-2.0065,-2.0083,-2.0089,-2.0093,-2.0099,-2.0144,-2.0153,-2.0058,-2.0058,-2.0058,0,0,-1.9383,-1.9428,-1.946,-1.9542,-1.9582,-1.9636,-1.9627,-1.9685,-1.9726,-1.9742,-1.9814,-1.9847,-1.9904,-1.9981,-2.0018,-2.001,-2.0129,-2.0098,-2.0101,-2.0106,-2.015,-2.0159,-2.0167,-2.0061,-2.006,-2.006,0,0,-1.9441,-1.9481,-1.9538,-1.9577,-1.9637,-1.9666,-1.9679,-1.9742,-1.9763,-1.9837,-1.985,-1.9899,-1.9995,-2.0036,-2.0069,-2.0144,-2.0151,-2.0161,-2.0187,-2.0231,-2.0238,-2.0245,-2.0272,-2.0281,-2.0167,-2.0167,-2.0167,0,-1.9454,-1.9537,-1.9566,-1.9625,-1.9661,-1.9677,-1.9735,-1.9772,-1.9847,-1.9872,-1.9862,-1.9983,-2.0023,-2.011,-2.0128,-2.0155,-2.0172,-2.0153,-2.0235,-2.0242,-2.0249,-2.0275,-2.0285,-2.0168,-2.0168,-2.0168,-2.0168,0,-1.955,-1.9608,-1.9647,-1.9718,-1.9759,-1.9817,-1.9855,-1.9893,-1.9908,-1.9937,-2.0013,-2.0061,-2.0126,-2.0148,-2.0163,-2.0238,-2.0231,-2.0228,-2.021,-2.0258,-2.0283,-2.0293,-2.0169,-2.0169,-2.0169,-2.0168,0,0,-1.9608,-1.9695,-1.9709,-1.9741,-1.9809,-1.9854,-1.9913,-1.9976,-2.0008,-2.0059,-2.011,-2.0191,-2.0188,-2.0226,-2.0246,-2.0284,-2.034,-2.0275,-2.0277,-2.0286,-2.0426,-2.0428,-2.0439,-2.0345,-2.0347,-2.0348,-2.0421,0,-1.9674,-1.9779,-1.9807,-1.9897,-1.995,-1.9967,-2.0018,-2.0065,-2.0095,-2.0145,-2.0178,-2.0235,-2.0227,-2.025,-2.0288,-2.0325,-2.0368,-2.032,-2.0393,-2.0395,-2.0378,-2.0452,-2.0455,-2.0521,-2.0431,-2.0433,-2.0434,0,-1.9765,-1.9818,-1.9912,-1.9973,-1.9996,-2.0042,-2.0103,-2.0151,-2.0205,-2.0224,-2.0266,-2.0282,-2.0345,-2.0323,-2.0411,-2.0377,-2.0409,-2.0431,-2.0434,-2.0442,-2.0417,-2.0463,-2.0543,-2.0553,-2.045,-2.0448,-2.0447,0,-1.9798,-1.9892,-1.9961,-1.9989,-2.0061,-2.0093,-2.0125,-2.0177,-2.0213,-2.0267,-2.0291,-2.0351,-2.0384,-2.043,-2.0463,-2.0444,-2.0547,-2.0528,-2.0565,-2.0564,-2.0586,-2.0584,-2.0673,-2.0606,-2.0606,-2.0606,-2.0606,0,-1.9869,-1.9926,-1.9977,-2.0019,-2.0084,-2.0117,-2.018,-2.0213,-2.0259,-2.0309,-2.0326,-2.0372,-2.0412,-2.0464,-2.049,-2.0558,-2.0573,-2.059,-2.0597,-2.0589,-2.0587,-2.061,-2.0606,-2.0608,-2.0608,-2.0607,-2.0607,0,-1.9916,-1.9953,-2.0029,-2.0091,-2.0108,-2.0153,-2.0207,-2.0249,-2.0279,-2.0342,-2.0358,-2.0406,-2.0468,-2.0505,-2.0583,-2.06,-2.0676,-2.068,-2.0658,-2.0661,-2.0696,-2.0692,-2.0803,-2.0819,-2.0741,-2.0741,-2.0742,0,-1.9959,-2.0004,-2.0071,-2.0105,-2.0137,-2.0192,-2.0229,-2.0263,-2.0301,-2.0366,-2.0401,-2.0464,-2.0516,-2.0614,-2.0656,-2.0716,-2.0722,-2.0756,-2.0731,-2.0722,-2.0723,-2.072,-2.0725,-2.0761,-2.0761,-2.0762,-2.0762,0,-2.0032,-2.0048,-2.0101,-2.016,-2.0204,-2.0253,-2.0301,-2.0329,-2.0371,-2.0413,-2.0476,-2.0516,-2.0596,-2.0659,-2.0722,-2.0756,-2.0767,-2.077,-2.0782,-2.0775,-2.076,-2.0769,-2.067,-2.0767,-2.0767,-2.0767,-2.0766,-2.0766,-2.0079,-2.0119,-2.0173,-2.0231,-2.0271,-2.0316,-2.0359,-2.0395,-2.0448,-2.0515,-2.0532,-2.0599,-2.0652,-2.0739,-2.0774,-2.0826,-2.0821,-2.0838,-2.0842,-2.0846,-2.0847,-2.0751,-2.0838,-2.0838,-2.0838,-2.0838,-2.0838,0,-2.0152,-2.0188,-2.0241,-2.0308,-2.0355,-2.036,-2.0415,-2.0453,-2.0511,-2.056,-2.0611,-2.0684,-2.0745,-2.0792,-2.0854,-2.0887,-2.0894,-2.0903,-2.0901,-2.0908,-2.0848,-2.0832,-2.0896,-2.0896,-2.0896,-2.0896,-2.0896,-2.0896,-2.0196,-2.0265,-2.0287,-2.0377,-2.0412,-2.0477,-2.0507,-2.0549,-2.0588,-2.0669,-2.0719,-2.0749,-2.0798,-2.0864,-2.092,-2.0932,-2.0955,-2.0963,-2.0976,-2.0919,-2.0912,-2.0906,-2.0891,-2.0967,-2.0967,-2.1032,-2.1032,-2.1033]}]]